Last server records
Pro Nub

Map info

kz_man_indiana
kz_man_indiana ( Xtreme-Jumps) 24.04.2004
Xtreme-Jumps record shooting-star - 06:01.83

KZ-Rush record -Gow- - 06:15.29

Mapper  Gypso
 Kreedz

Pro-record phersz - 08:58.44

Nub-record SlasHeR - 07:21.60 (203 cp / 8 gc)

Difficulty Easy

Length Long

Download map kz_man_indiana (11,41 MB)
Installation instructions

Map Installation Guide

  1. Download map archive kz_man_indiana.zip
  2. Unzip the archive in any convenient folder
  3. Open cstrike folder, which is located in the place of Counter-Strike installation. In case of Steam version the path looks like Steam\steamapps\common\Half-Life
  4. Copy all files from the folder, where you unzipped the archive, to cstrike folder according to the following table (if your system asks about replacing files, choose Copy and Replace):
maps/kz_man_indiana.bsp>>maps/kz_man_indiana.bsp
models/spyder.mdl>>models/spyder.mdl
sound/ambience/scandalous.wav>>sound/ambience/scandalous.wav

Community records

# Player Time Difference Date  
1 -Gow- 06:15.29   20.10.18
# Player Time Date Weapon
1 phersz 08:58.44 11.08.17
2 ddevil 09:00.67 07.08.17
3 sunman 09:20.12 29.09.17
4 gf97 10:23.15 18.10.20
5 DragKedja 10:52.80 22.05.19
6 Momonga 11:38.10 09.09.20
7 avivVv 13:49.32 23.10.20
8 fantastikaaaaaaa 14:14.29 21.03.18
9 monta 15:43.86 23.10.20
# Player Time Date Weapon CP GC
1 SlasHeR 07:21.60 19.01.19 203 8
2 sunman 07:51.38 29.09.17 229 25
3 GoDfreee 07:53.76 01.09.17 191 20
4 erdik 07:53.81 05.01.19 240 16
5 mujik 07:55.69 07.06.17 219 24
6 23savage 08:29.88 01.09.17 238 21
7 Roseanne_Park. 08:40.24 12.05.18 229 27
8 Jucatorul 08:46.27 24.10.18 233 23
9 RoN` 08:48.07 07.03.17 260 39
10 [WS] 09:01.38 18.03.19 228 42
11 Deadpool 09:04.60 07.06.17 254 27
12 zepp_ 09:11.17 07.06.17 268 26
13 necok^ 09:20.31 27.01.19 217 52
14 toyzz 09:20.56 29.09.17 294 29
15 WERANCE 09:32.99 01.09.17 280 41
16 999 09:36.42 12.05.18 269 25
17 flawlessness 09:44.57 27.02.17 269 27
18 fog1_emptiness 09:49.17 22.05.19 312 40
19 ddevil 09:56.12 07.08.17 263 47
20 sook 10:02.08 07.03.17 246 47
21 taipan 10:02.50 27.02.17 269 30
22 kassu 10:11.84 05.05.17 256 37
23 ROFL 10:20.56 07.06.17 257 39
24 Bunny^ 10:25.08 30.03.18 250 40
25 Zak 10:26.66 01.09.17 323 69
26 3_Челси 10:30.28 23.02.18 279 30
27 nema povlacenja 10:32.16 07.03.17 281 47
28 ella 10:35.03 19.01.19 339 38
29 ~Ow| BJJ 10:40.78 27.01.19 324 69
30 Xednay 10:42.05 07.03.17 274 61
31 Agressiv 10:45.16 04.08.17 266 66
32 brodyaga 10:45.35 30.03.18 286 70
33 phersz 10:51.54 11.08.17 248 32
34 exodus 10:54.18 16.10.19 271 43
35 Madaraxxx 11:03.43 23.02.18 234 61
36 Masljonok 11:09.40 07.07.18 248 58
37 Дно_#_W1nS 11:09.41 05.01.19 240 50
38 just_Player 11:14.96 05.05.17 251 35
39 NucLeaR 11:15.63 23.11.17 333 56
40 lavash 11:21.93 01.09.17 281 53
41 riddle 11:26.45 05.05.17 326 84
42 MaVo_V.limit 11:27.50 21.03.18 223 61
43 Shanta 11:27.77 18.10.20 304 39
44 Yoyo ^_^ 11:33.45 07.08.17 256 67
45 sharovoebezumie 11:33.74 12.03.18 197 53
46 Penguin 11:35.03 12.05.18 97 12
47 php_echo_Hello_World_ 11:40.99 10.07.17 324 73
48 Silk_Road 11:42.66 07.07.18 220 87
49 bORN2MAKEPORN 11:42.94 22.05.19 265 69
50 Juffi 11:48.95 27.11.18 207 73
51 inso 11:57.64 11.08.17 314 82
52 abcdefg 12:00.60 05.01.19 301 79
53 Selhouette333 12:03.38 27.01.19 182 120
54 dark69 12:08.71 20.06.19 345 87
55 Kirmanz 12:19.98 18.10.20 259 38
56 Al4nayaMrazb 12:23.35 09.12.18 287 91
57 Player 12:24.40 27.11.18 87 25
58 I_are_dont_think_cars 12:24.58 23.10.18 269 77
59 estrom 12:25.72 27.11.18 297 74
60 Nutella 12:27.57 05.01.19 334 39
61 Darling 12:30.68 24.10.19 306 90
62 PoOo 12:31.96 10.05.16 306 60
63 htomka 12:39.74 07.07.18 337 105
64 Rumanu 12:43.80 05.05.17 306 114
65 pepi 12:50.23 18.10.20 249 32
66 horosho 12:56.86 23.10.20 269 60
67 maks 13:00.39 22.04.18 286 36
68 Conquest__Okich_ 13:08.11 21.03.18 334 111
69 Uncle_Coffee_ 13:09.11 05.01.19 266 86
70 SaVy777 13:37.79 23.10.20 287 101
71 yohohox 13:39.14 07.06.17 258 88
72 Lady 13:45.96 20.06.19 328 86
73 Player 13:51.69 30.03.18 180 100
74 Galaktus 13:59.69 24.10.19 313 71
75 space 14:04.30 21.03.18 207 124
76 Im6a 14:14.86 05.01.19 181 75
77 Conquest_l_Okich__R 14:32.43 05.01.19 313 39
78 {Fn}_Amon 14:34.94 21.03.18 330 76
79 InVite^^ 14:37.95 20.06.19 283 83
80 test1 14:46.86 30.03.18 369 105
81 azino777 14:51.28 19.01.19 302 111
82 ~HR~7fAta 14:51.47 05.01.19 215 105
83 salyt! 14:59.92 24.10.19 218 94
84 江湖著名狠人 15:08.86 01.09.17 256 91
85 E1EMENTCORE 15:45.11 20.06.19 295 112
86 Latgalc 15:56.24 05.01.19 197 64
87 [B]KOHTPE 16:14.07 27.11.18 320 111
88 QueenAngel 16:27.69 18.03.19 234 105
89 владислав 16:34.31 26.04.20 246 176
90 PythonerZ^ 16:40.85 27.01.19 304 139
91 tymbo4ka 16:57.36 24.10.18 258 117
92 DimOk 16:58.78 03.09.18 245 84
93 Dodik 17:01.58 07.06.17 264 134
94 Capsize 17:17.02 07.08.17 300 95
95 IDs^^ 18:47.04 07.03.17 243 171
96 AMAZING 19:01.59 07.08.17 145 189
97 [email protected]@S 19:55.60 19.01.19 201 189
98 Nata 20:30.56 29.10.16 320 124
99 uroki_i_ocenki_po_nim_5_esli_c 20:38.25 10.09.19 134 123
100 Fr1berg 22:00.83 23.02.18 338 167
101 Redly 23:34.24 07.08.17 105 84
102 Sour 25:06.27 10.07.17 175 145
103 WWW.xinjiang.com 25:18.27 10.05.16 156 160
104 Black_TTT 29:30.42 03.09.18 327 285
105 YA_ZHE_AJ_Styles 32:17.96 27.01.19 171 176

Other maps with same difficulty

Other maps from Xtreme-Jumps

Other maps from mapper Gypso

Other maps from mapper Kreedz